User: anonymous   Login
Location: Unspecified
(0.0000°N, 0.0000°E)
Time: 14:34:18
(UTC+00:00)
Language:

FO-29 - Orbit

View from above orbital plane
View from above orbital plane
View from above satellite
View from above satellite

Ground track
Ground track

The orbit data is extracted from the following two-line orbital elements,

1 24278U 96046B   17084.67999820 -.00000057 +00000-0 -21529-4 0  9995
2 24278 098.5760 339.0045 0350130 193.5709 165.5827 13.53074884017331
Epoch (UTC): 25 March 2017 16:19:11
Eccentricity: 0.0350130
inclination: 98.5760°
perigee height: 800 km
apogee height: 1321 km
right ascension of ascending node: 339.0045°
argument of perigee: 193.5709°
revolutions per day: 13.53074884
mean anomaly at epoch: 165.5827°
orbit number at epoch: 1733

The dashed part of the orbit path shows where the satellite is in the earth's shadow,  

DLR